Flag for Kuwait Weather past 2 weeks in Kuwait City, Kuwait

Now
88 °F

Clear.


Feels Like: 85 °F
Forecast: 76 / 91 °F
Wind: 7 mph from Northeast

Location: Kuwait International Airport

Current Time: Oct 25, 2014 at 7:58:57 PM

Latest Report: Oct 25, 2014 at 7:00 PM


Visibility: 10 mi

Pressure: 29.89 "Hg

Humidity: 25%

Dew point: 48 °F

Location of Kuwait CityLocation

Historic Weather in Kuwait City — Graph

°F

Kuwait City temperature yesterday

Maximum temperature yesterday: 90 °F (at 1:00 PM)
Minimum temperature yesterday: 61 °F (at 5:00 AM)
Average temperature yesterday: 75 °F

Past Weeks' High & Low Weather Summary

 TemperatureHumidityPressure
High104 °F (Oct 12, 2:00 PM)65% (Oct 16, 5:00 AM)30.12 "Hg (Oct 16, 5:00 AM)
Low59 °F (Oct 23, 6:00 AM)10% (Oct 20, 1:00 PM)29.71 "Hg (Oct 20, 1:00 PM)
Average83 °F35%29.92 "Hg
* Reported Oct 10 6:00 PM — Oct 25 6:00 PM, Kuwait City, Weather by CustomWeather, © 2014

Note: Actual official high and low records may vary slightly from our data, if they occured in-between our weather recording intervals... More about our weather records

Advertising

Kuwait City weather history for previous 24 hours

 ConditionsComfort  
Time TempWeatherWind HumidityBarometerVisibility
6:00 PM
Oct 25
88 °FClear.3 mph24%29.89 "Hg10 mi
5:00 PM91 °FSunny.8 mph21%29.86 "Hg10 mi
4:00 PM93 °FSunny.7 mph20%29.86 "Hg10 mi
3:00 PM95 °FSunny.9 mph19%29.86 "Hg10 mi
2:00 PM93 °FSunny.13 mph20%29.86 "Hg10 mi
1:00 PM93 °FSunny.14 mph20%29.89 "Hg10 mi
12:00 PM91 °FSunny.13 mph20%29.92 "Hg10 mi
11:00 AM90 °FSunny.13 mph21%29.95 "Hg10 mi
10:00 AM88 °FSunny.13 mph22%29.95 "Hg10 mi
9:00 AM82 °FSunny.9 mph28%29.98 "Hg10 mi
8:00 AM77 °FSunny.7 mph32%29.98 "Hg4 mi
7:00 AM70 °FSunny.3 mph35%29.95 "Hg3 mi
6:00 AM64 °FSunny.No wind40%29.92 "Hg3 mi
5:00 AM64 °FClear.3 mph40%29.92 "Hg4 mi
4:00 AM64 °FClear.3 mph43%29.89 "Hg4 mi
3:00 AM66 °FClear.3 mph40%29.89 "Hg4 mi
2:00 AM68 °FClear.3 mph35%29.92 "Hg10 mi
1:00 AM68 °FClear.No wind35%29.92 "Hg10 mi
12:00 AM70 °FClear.3 mph35%29.92 "Hg10 mi
11:00 PM
Oct 24
72 °FClear.No wind36%29.92 "Hg10 mi
10:00 PM72 °FClear.3 mph38%29.95 "Hg10 mi
9:00 PM73 °FClear.No wind36%29.95 "Hg10 mi
8:00 PM73 °FClear.No wind36%29.92 "Hg10 mi
7:00 PM75 °FClear.3 mph34%29.92 "Hg10 mi
Weather by CustomWeather, © 2014

See weather overviewHow to use our weather pages